Flag for Germany Weather past 2 weeks in Bingen am Rhein, Rhineland-Palatinate, Germany

Now
66 °F

Scattered clouds.


Feels Like: 66 °F
Forecast: 44 / 60 °F
Wind: 13 mph from West

Location: Wiesbaden Airport

Current Time: Oct 20, 2014 at 3:14:51 PM

Latest Report: Oct 20, 2014 at 1:58 PM


Visibility: N/A

Pressure: 30.05 "Hg

Humidity: 64%

Dew point: 54 °F

Location of Bingen am RheinLocation

Historic Weather in Bingen am Rhein — Graph

°F

Bingen am Rhein temperature yesterday

Maximum temperature yesterday: 72 °F (at 3:58 PM)
Minimum temperature yesterday: 48 °F (at 4:58 AM)
Average temperature yesterday: 57 °F

Past Weeks' High & Low Weather Summary

 TemperatureHumidityPressure
High72 °F (Oct 19, 3:58 PM)100% (Oct 7, 5:58 AM)30.21 "Hg (Oct 7, 5:58 AM)
Low46 °F (Oct 12, 7:59 AM)59% (Oct 15, 3:58 PM)29.66 "Hg (Oct 7, 10:59 AM)
Average58 °F92%29.90 "Hg
* Reported Oct 5 1:58 PM — Oct 20 1:58 PM, Bingen am Rhein, Weather by CustomWeather, © 2014

Note: Actual official high and low records may vary slightly from our data, if they occured in-between our weather recording intervals... More about our weather records

Advertising

Bingen am Rhein weather history for previous 24 hours

 ConditionsComfort  
Time TempWeatherWind HumidityBarometerVisibility
1:58 PM
Oct 20
66 °FScattered clouds.13 mph64%30.05 "HgN/A
12:58 PM65 °FScattered clouds.10 mph71%30.07 "HgN/A
11:58 AM64 °FScattered clouds.6 mph78%30.08 "HgN/A
10:58 AM62 °FOvercast.8 mph86%30.09 "HgN/A
10:01 AM61 °FPartly sunny.6 mph83%30.08 "HgN/A
9:58 AM61 °FCloudy.7 mph83%30.08 "HgN/A
8:58 AM59 °FOvercast.2 mph85%30.08 "HgN/A
7:58 AM59 °FOvercast.2 mph82%30.08 "HgN/A
6:58 AM59 °FOvercast.3 mph82%30.07 "HgN/A
4:58 AM61 °FMostly cloudy.5 mph77%30.08 "HgN/A
3:58 AM63 °FMostly cloudy.8 mph75%30.07 "HgN/A
2:58 AM62 °FMostly cloudy.7 mph92%30.08 "HgN/A
1:58 AM62 °FMostly cloudy.9 mph94%30.07 "HgN/A
12:58 AM61 °FPartly cloudy.3 mph94%30.08 "HgN/A
11:58 PM
Oct 19
62 °FPassing clouds.5 mph93%30.07 "HgN/A
10:58 PM61 °FPassing clouds.7 mph100%30.06 "HgN/A
9:58 PM63 °FClear.7 mph94%30.05 "HgN/A
8:58 PM63 °FClear.3 mph94%30.05 "HgN/A
7:58 PM64 °FPassing clouds.5 mph88%30.05 "HgN/A
6:58 PM65 °FSunny.6 mph88%30.05 "HgN/A
5:58 PM70 °FSunny.7 mph78%30.05 "HgN/A
4:58 PM71 °FSunny.14 mph77%30.05 "HgN/A
3:58 PM72 °FSunny.14 mph73%30.06 "HgN/A
Weather by CustomWeather, © 2014

See weather overviewHow to use our weather pages